| time (UTC) | temp C | wind direction | speed KPH | gust KPH | rain 1hr cm | rain 24hr cm | rain mn cm | humidity % | barometer mb |
| 20260509162023 | 15 | 187 | 6.4 | 19.3 | 0.00 | 0.00 | 0.00 | 68 | 1005.4 |
| 20260509161539 | 15 | 213 | 11.3 | 19.3 | 0.00 | 0.00 | 0.00 | 65 | 1005.5 |
| 20260509161022 | 15 | 194 | 8.0 | 16.1 | 0.00 | 0.00 | 0.00 | 65 | 1005.5 |
| 20260509160523 | 15 | 196 | 8.0 | 14.5 | 0.00 | 0.00 | 0.00 | 65 | 1005.6 |
| 20260509160038 | 15 | 182 | 1.6 | 12.9 | 0.00 | 0.00 | 0.00 | 69 | 1005.7 |
| 20260509155522 | 15 | 191 | 3.2 | 11.3 | 0.00 | 0.00 | 0.00 | 69 | 1005.7 |
| 20260509155022 | 15 | 189 | 3.2 | 14.5 | 0.00 | 0.00 | 0.00 | 70 | 1005.8 |
| 20260509154542 | 14 | 271 | 3.2 | 16.1 | 0.00 | 0.00 | 0.00 | 69 | 1005.9 |
| 20260509154021 | 15 | 211 | 6.4 | 17.7 | 0.00 | 0.00 | 0.00 | 70 | 1005.9 |
| 20260509153522 | 14 | 223 | 8.0 | 17.7 | 0.00 | 0.00 | 0.00 | 70 | 1005.9 |
| 20260509153050 | 15 | 188 | 4.8 | 12.9 | 0.00 | 0.00 | 0.00 | 71 | 1006.0 |
| 20260509152523 | 15 | 197 | 6.4 | 11.3 | 0.00 | 0.00 | 0.00 | 72 | 1006.0 |
| 20260509152020 | 14 | 285 | 3.2 | 9.7 | 0.00 | 0.00 | 0.00 | 72 | 1006.0 |
| 20260509151540 | 14 | 293 | 3.2 | 14.5 | 0.00 | 0.00 | 0.00 | 73 | 1006.1 |
| 20260509151020 | 13 | 265 | 6.4 | 14.5 | 0.00 | 0.00 | 0.00 | 72 | 1006.1 |
| 20260509150523 | 13 | 202 | 3.2 | 11.3 | 0.00 | 0.00 | 0.00 | 72 | 1006.0 |
| 20260509150038 | 13 | 207 | 6.4 | 14.5 | 0.00 | 0.00 | 0.00 | 72 | 1006.0 |
| 20260509145521 | 13 | 197 | 4.8 | 14.5 | 0.00 | 0.00 | 0.00 | 72 | 1006.0 |
| 20260509145021 | 13 | 223 | 8.0 | 14.5 | 0.00 | 0.00 | 0.00 | 72 | 1006.1 |
| 20260509144537 | 13 | 208 | 8.0 | 14.5 | 0.00 | 0.00 | 0.00 | 74 | 1006.1 |
| 20260509144020 | 13 | 232 | 3.2 | 12.9 | 0.00 | 0.00 | 0.00 | 76 | 1006.1 |
| 20260509143521 | 13 | 157 | 4.8 | 12.9 | 0.00 | 0.00 | 0.00 | 75 | 1006.1 |
| 20260509143037 | 13 | 195 | 3.2 | 12.9 | 0.00 | 0.00 | 0.00 | 76 | 1006.2 |
| 20260509142523 | 13 | 188 | 6.4 | 12.9 | 0.00 | 0.00 | 0.00 | 77 | 1006.2 |
| 20260509142020 | 13 | 254 | 4.8 | 12.9 | 0.00 | 0.00 | 0.00 | 77 | 1006.3 |
| 20260509141542 | 13 | 179 | 3.2 | 11.3 | 0.00 | 0.00 | 0.00 | 78 | 1006.3 |
| 20260509141021 | 13 | 221 | 4.8 | 14.5 | 0.00 | 0.00 | 0.00 | 78 | 1006.4 |
| 20260509140521 | 13 | 194 | 6.4 | 16.1 | 0.00 | 0.00 | 0.00 | 78 | 1006.4 |
| 20260509140036 | 13 | 209 | 6.4 | 16.1 | 0.00 | 0.00 | 0.00 | 78 | 1006.4 |
| 20260509135521 | 13 | 0 | 3.2 | 11.3 | 0.00 | 0.00 | 0.00 | 78 | 1006.3 |
| 20260509135026 | 13 | 213 | 4.8 | 14.5 | 0.00 | 0.00 | 0.00 | 79 | 1006.3 |
| 20260509134539 | 12 | 220 | 6.4 | 14.5 | 0.00 | 0.00 | 0.00 | 78 | 1006.2 |
| 20260509134020 | 12 | 229 | 8.0 | 14.5 | 0.00 | 0.00 | 0.00 | 78 | 1006.3 |
| 20260509133523 | 12 | 215 | 6.4 | 14.5 | 0.00 | 0.00 | 0.00 | 79 | 1006.3 |
| 20260509133038 | 12 | 223 | 6.4 | 14.5 | 0.00 | 0.00 | 0.00 | 79 | 1006.3 |
| 20260509132523 | 12 | 188 | 6.4 | 12.9 | 0.00 | 0.00 | 0.00 | 80 | 1006.2 |
| 20260509132020 | 12 | 201 | 3.2 | 14.5 | 0.00 | 0.00 | 0.00 | 81 | 1006.2 |
| 20260509131538 | 12 | 186 | 4.8 | 14.5 | 0.00 | 0.00 | 0.00 | 82 | 1006.3 |
| 20260509131022 | 12 | 174 | 8.0 | 14.5 | 0.00 | 0.00 | 0.00 | 81 | 1006.5 |
| 20260509130523 | 12 | 146 | 6.4 | 16.1 | 0.00 | 0.00 | 0.00 | 81 | 1006.6 |
| 20260509130040 | 11 | 167 | 4.8 | 16.1 | 0.00 | 0.00 | 0.00 | 82 | 1006.7 |
| 20260509125520 | 11 | 135 | 4.8 | 14.5 | 0.00 | 0.05 | 0.00 | 83 | 1006.7 |
| 20260509125020 | 11 | 188 | 6.4 | 14.5 | 0.00 | 0.05 | 0.00 | 83 | 1006.7 |
| 20260509124545 | 11 | 161 | 8.0 | 12.9 | 0.00 | 0.05 | 0.00 | 83 | 1006.7 |
| 20260509124020 | 11 | 184 | 3.2 | 12.9 | 0.00 | 0.05 | 0.00 | 84 | 1006.8 |
| 20260509123520 | 11 | 186 | 4.8 | 11.3 | 0.00 | 0.05 | 0.00 | 84 | 1006.8 |
| 20260509123042 | 11 | 203 | 3.2 | 11.3 | 0.00 | 0.05 | 0.00 | 85 | 1006.9 |
| 20260509122523 | 10 | 203 | 1.6 | 11.3 | 0.00 | 0.05 | 0.00 | 85 | 1006.9 |
| 20260509122020 | 10 | 203 | 4.8 | 9.7 | 0.00 | 0.05 | 0.00 | 85 | 1006.9 |
| 20260509121538 | 10 | 186 | 3.2 | 8.0 | 0.00 | 0.05 | 0.00 | 85 | 1007.0 |
| 20260509121023 | 10 | 169 | 1.6 | 9.7 | 0.00 | 0.05 | 0.00 | 85 | 1007.0 |
| 20260509120521 | 10 | 159 | 3.2 | 9.7 | 0.00 | 0.05 | 0.00 | 86 | 1007.1 |
| 20260509120035 | 10 | 189 | 3.2 | 9.7 | 0.00 | 0.05 | 0.00 | 86 | 1007.0 |
| 20260509115519 | 9 | 185 | 3.2 | 9.7 | 0.00 | 0.36 | 0.00 | 87 | 1006.9 |
| 20260509115022 | 9 | 158 | 3.2 | 8.0 | 0.00 | 0.36 | 0.00 | 87 | 1006.9 |
| 20260509114537 | 8 | 155 | 1.6 | 9.7 | 0.00 | 0.36 | 0.00 | 87 | 1006.9 |
| 20260509114020 | 8 | 155 | 4.8 | 9.7 | 0.00 | 0.36 | 0.00 | 88 | 1006.8 |
| 20260509113523 | 8 | 153 | 1.6 | 6.4 | 0.00 | 0.36 | 0.00 | 88 | 1007.0 |
| 20260509113040 | 8 | 148 | 1.6 | 6.4 | 0.00 | 0.36 | 0.00 | 88 | 1007.1 |
| 20260509112520 | 7 | 148 | 1.6 | 3.2 | 0.00 | 0.36 | 0.00 | 88 | 1007.0 |
| 20260509112020 | 7 | 0 | 0.0 | 3.2 | 0.00 | 0.36 | 0.00 | 88 | 1007.1 |
| 20260509111541 | 7 | 148 | 0.0 | 0.0 | 0.00 | 0.36 | 0.00 | 88 | 1007.2 |
| 20260509111023 | 7 | 0 | 0.0 | 3.2 | 0.00 | 0.36 | 0.00 | 88 | 1007.2 |
| 20260509110523 | 7 | 0 | 0.0 | 3.2 | 0.00 | 0.36 | 0.00 | 88 | 1007.3 |
| 20260509110041 | 7 | 0 | 0.0 | 3.2 | 0.00 | 0.36 | 0.00 | 89 | 1007.2 |
| 20260509105523 | 7 | 0 | 0.0 | 3.2 | 0.00 | 0.43 | 0.00 | 89 | 1007.2 |
| 20260509105023 | 7 | 0 | 1.6 | 4.8 | 0.00 | 0.43 | 0.00 | 89 | 1007.1 |
| 20260509104538 | 6 | 0 | 0.0 | 4.8 | 0.00 | 0.43 | 0.00 | 89 | 1007.2 |
| 20260509104020 | 6 | 148 | 0.0 | 4.8 | 0.00 | 0.43 | 0.00 | 89 | 1007.2 |
| 20260509103524 | 6 | 148 | 0.0 | 3.2 | 0.00 | 0.43 | 0.00 | 89 | 1007.0 |
| 20260509103044 | 6 | 0 | 0.0 | 3.2 | 0.00 | 0.43 | 0.00 | 89 | 1007.0 |
| 20260509102521 | 6 | 0 | 0.0 | 3.2 | 0.00 | 0.43 | 0.00 | 89 | 1006.9 |
| 20260509102021 | 6 | 0 | 0.0 | 3.2 | 0.00 | 0.43 | 0.00 | 89 | 1006.9 |
| 20260509101550 | 6 | 0 | 0.0 | 3.2 | 0.00 | 0.43 | 0.00 | 88 | 1006.9 |
| 20260509101020 | 5 | 0 | 0.0 | 3.2 | 0.00 | 0.43 | 0.00 | 88 | 1007.0 |
| 20260509100522 | 5 | 0 | 0.0 | 3.2 | 0.00 | 0.43 | 0.00 | 88 | 1006.9 |
| 20260509100037 | 5 | 148 | 0.0 | 3.2 | 0.00 | 0.43 | 0.00 | 87 | 1007.0 |
| 20260509095521 | 5 | 0 | 0.0 | 0.0 | 0.00 | 0.43 | 0.00 | 86 | 1007.0 |
| 20260509095020 | 5 | 0 | 0.0 | 0.0 | 0.00 | 0.43 | 0.00 | 86 | 1007.1 |
| 20260509094540 | 5 | 0 | 0.0 | 0.0 | 0.00 | 0.43 | 0.00 | 86 | 1007.1 |
| 20260509094022 | 5 | 0 | 0.0 | 0.0 | 0.00 | 0.43 | 0.00 | 85 | 1007.1 |
| 20260509093522 | 5 | 0 | 0.0 | 0.0 | 0.00 | 0.43 | 0.00 | 85 | 1007.0 |
| 20260509093038 | 6 | 0 | 0.0 | 0.0 | 0.00 | 0.43 | 0.00 | 84 | 1007.0 |
| 20260509092519 | 6 | 0 | 0.0 | 0.0 | 0.00 | 0.43 | 0.00 | 83 | 1007.0 |
| 20260509092020 | 6 | 0 | 0.0 | 0.0 | 0.00 | 0.43 | 0.00 | 82 | 1007.0 |
| 20260509091537 | 6 | 0 | 0.0 | 1.6 | 0.00 | 0.43 | 0.00 | 82 | 1007.1 |
| 20260509091024 | 6 | 0 | 0.0 | 3.2 | 0.00 | 0.43 | 0.00 | 82 | 1007.1 |
| 20260509090522 | 6 | 0 | 0.0 | 3.2 | 0.00 | 0.43 | 0.00 | 82 | 1007.1 |
| 20260509090045 | 6 | 0 | 0.0 | 3.2 | 0.00 | 0.43 | 0.00 | 82 | 1007.1 |
| 20260509085519 | 6 | 0 | 0.0 | 3.2 | 0.00 | 0.43 | 0.00 | 82 | 1007.1 |
| 20260509085019 | 6 | 0 | 0.0 | 3.2 | 0.00 | 0.43 | 0.00 | 82 | 1007.2 |
| 20260509084535 | 6 | 0 | 1.6 | 3.2 | 0.00 | 0.43 | 0.00 | 81 | 1007.2 |
| 20260509084020 | 6 | 0 | 0.0 | 4.8 | 0.00 | 0.43 | 0.00 | 80 | 1007.2 |
| 20260509083519 | 6 | 148 | 0.0 | 4.8 | 0.00 | 0.43 | 0.00 | 80 | 1007.2 |
| 20260509083053 | 6 | 148 | 1.6 | 4.8 | 0.00 | 0.43 | 0.00 | 80 | 1007.3 |
| 20260509082524 | 6 | 0 | 0.0 | 4.8 | 0.00 | 0.43 | 0.00 | 79 | 1007.3 |
| 20260509082022 | 6 | 148 | 1.6 | 4.8 | 0.00 | 0.43 | 0.00 | 79 | 1007.3 |
| 20260509081542 | 6 | 148 | 1.6 | 4.8 | 0.00 | 0.43 | 0.00 | 79 | 1007.3 |
| 20260509081023 | 6 | 148 | 0.0 | 6.4 | 0.00 | 0.43 | 0.00 | 78 | 1007.4 |
| 20260509080523 | 5 | 148 | 1.6 | 6.4 | 0.00 | 0.43 | 0.00 | 79 | 1007.4 |
| 20260509080040 | 5 | 148 | 0.0 | 3.2 | 0.00 | 0.43 | 0.00 | 78 | 1007.5 |
| 20260509075524 | 5 | 0 | 0.0 | 3.2 | 0.00 | 0.43 | 0.00 | 78 | 1007.5 |
| 20260509075022 | 5 | 0 | 0.0 | 3.2 | 0.00 | 0.43 | 0.00 | 77 | 1007.5 |
| 20260509074543 | 5 | 0 | 0.0 | 0.0 | 0.00 | 0.43 | 0.00 | 77 | 1007.6 |
| 20260509074022 | 4 | 0 | 0.0 | 0.0 | 0.00 | 0.43 | 0.00 | 76 | 1007.6 |
| 20260509073523 | 5 | 0 | 0.0 | 0.0 | 0.00 | 0.43 | 0.00 | 76 | 1007.6 |
| 20260509073043 | 5 | 0 | 0.0 | 0.0 | 0.00 | 0.43 | 0.00 | 75 | 1007.7 |
| 20260509072523 | 5 | 0 | 0.0 | 3.2 | 0.00 | 0.43 | 0.00 | 75 | 1007.7 |
| 20260509072023 | 5 | 0 | 0.0 | 3.2 | 0.00 | 0.43 | 0.00 | 75 | 1007.7 |
| 20260509071543 | 5 | 148 | 0.0 | 3.2 | 0.00 | 0.43 | 0.00 | 74 | 1007.7 |
| 20260509071020 | 5 | 148 | 0.0 | 3.2 | 0.00 | 0.43 | 0.00 | 74 | 1007.6 |
| 20260509070524 | 5 | 0 | 0.0 | 3.2 | 0.00 | 0.43 | 0.00 | 74 | 1007.7 |
| 20260509070040 | 5 | 148 | 0.0 | 3.2 | 0.00 | 0.43 | 0.00 | 74 | 1007.8 |
| 20260509065525 | 5 | 148 | 1.6 | 3.2 | 0.00 | 0.43 | 0.00 | 74 | 1007.8 |
| 20260509065025 | 5 | 148 | 0.0 | 3.2 | 0.00 | 0.43 | 0.00 | 74 | 1007.9 |
| 20260509064538 | 5 | 0 | 0.0 | 3.2 | 0.00 | 0.43 | 0.00 | 73 | 1007.8 |
| 20260509064021 | 5 | 148 | 0.0 | 3.2 | 0.00 | 0.43 | 0.00 | 73 | 1007.9 |
| 20260509063520 | 5 | 148 | 1.6 | 3.2 | 0.00 | 0.43 | 0.00 | 73 | 1008.1 |
| 20260509063038 | 5 | 148 | 1.6 | 4.8 | 0.00 | 0.43 | 0.00 | 73 | 1008.1 |
| 20260509062521 | 5 | 148 | 1.6 | 4.8 | 0.00 | 0.43 | 0.00 | 73 | 1008.2 |
| 20260509062020 | 4 | 148 | 1.6 | 4.8 | 0.00 | 0.43 | 0.00 | 75 | 1008.3 |
| 20260509061540 | 4 | 148 | 0.0 | 1.6 | 0.00 | 0.43 | 0.00 | 74 | 1008.4 |
| 20260509061024 | 4 | 0 | 0.0 | 0.0 | 0.00 | 0.43 | 0.00 | 74 | 1008.4 |
| 20260509060520 | 4 | 0 | 0.0 | 0.0 | 0.00 | 0.43 | 0.00 | 74 | 1008.5 |
| 20260509060047 | 4 | 0 | 0.0 | 0.0 | 0.00 | 0.43 | 0.00 | 73 | 1008.6 |
| 20260509055523 | 4 | 0 | 0.0 | 0.0 | 0.00 | 0.43 | 0.00 | 72 | 1008.7 |
| 20260509055021 | 5 | 0 | 0.0 | 0.0 | 0.00 | 0.43 | 0.00 | 71 | 1008.7 |
| 20260509054536 | 5 | 0 | 0.0 | 3.2 | 0.00 | 0.43 | 0.00 | 71 | 1008.8 |
| 20260509054020 | 5 | 0 | 0.0 | 3.2 | 0.00 | 0.43 | 0.00 | 70 | 1008.8 |
| 20260509053521 | 5 | 0 | 0.0 | 3.2 | 0.00 | 0.43 | 0.00 | 70 | 1008.8 |
| 20260509053102 | 5 | 148 | 0.0 | 4.8 | 0.00 | 0.43 | 0.00 | 69 | 1008.9 |
| 20260509052522 | 5 | 0 | 0.0 | 4.8 | 0.00 | 0.43 | 0.00 | 69 | 1008.9 |
| 20260509052020 | 5 | 148 | 0.0 | 6.4 | 0.00 | 0.43 | 0.00 | 69 | 1008.9 |
| 20260509051543 | 5 | 148 | 1.6 | 6.4 | 0.00 | 0.43 | 0.00 | 69 | 1009.0 |
| 20260509051021 | 5 | 136 | 1.6 | 4.8 | 0.00 | 0.43 | 0.00 | 70 | 1009.1 |
| 20260509050521 | 5 | 0 | 0.0 | 3.2 | 0.00 | 0.43 | 0.00 | 71 | 1009.2 |
| 20260509050039 | 5 | 0 | 0.0 | 3.2 | 0.00 | 0.43 | 0.00 | 71 | 1009.2 |
| 20260509045528 | 5 | 136 | 0.0 | 3.2 | 0.00 | 0.43 | 0.00 | 71 | 1009.2 |
| 20260509045021 | 5 | 0 | 0.0 | 3.2 | 0.00 | 0.43 | 0.00 | 71 | 1009.2 |
| 20260509044546 | 5 | 0 | 0.0 | 4.8 | 0.00 | 0.43 | 0.00 | 70 | 1009.2 |
| 20260509044020 | 5 | 0 | 0.0 | 9.7 | 0.00 | 0.43 | 0.00 | 70 | 1009.2 |
| 20260509043520 | 5 | 0 | 1.6 | 8.0 | 0.00 | 0.43 | 0.00 | 70 | 1009.5 |
| 20260509043046 | 5 | 0 | 0.0 | 3.2 | 0.00 | 0.43 | 0.00 | 72 | 1009.5 |
| 20260509042521 | 5 | 271 | 0.0 | 3.2 | 0.00 | 0.43 | 0.00 | 72 | 1009.5 |
| 20260509042021 | 5 | 271 | 0.0 | 3.2 | 0.00 | 0.43 | 0.00 | 72 | 1009.6 |
| 20260509041539 | 4 | 0 | 0.0 | 3.2 | 0.00 | 0.43 | 0.00 | 73 | 1009.6 |
| 20260509041021 | 4 | 0 | 0.0 | 3.2 | 0.00 | 0.43 | 0.00 | 73 | 1009.6 |
| 20260509040523 | 4 | 271 | 0.0 | 3.2 | 0.00 | 0.43 | 0.00 | 74 | 1009.6 |
| 20260509040046 | 4 | 271 | 0.0 | 1.6 | 0.00 | 0.43 | 0.00 | 76 | 1009.7 |
| 20260509035521 | 4 | 0 | 0.0 | 1.6 | 0.00 | 0.43 | 0.43 | 76 | 1009.8 |
| 20260509035021 | 4 | 0 | 0.0 | 1.6 | 0.00 | 0.43 | 0.43 | 76 | 1009.9 |
| 20260509034540 | 4 | 0 | 0.0 | 3.2 | 0.00 | 0.43 | 0.43 | 76 | 1009.9 |
| 20260509034020 | 4 | 0 | 0.0 | 3.2 | 0.00 | 0.43 | 0.43 | 76 | 1010.0 |
| 20260509033519 | 4 | 0 | 0.0 | 3.2 | 0.00 | 0.43 | 0.43 | 76 | 1010.0 |
| 20260509033043 | 4 | 0 | 0.0 | 3.2 | 0.00 | 0.43 | 0.43 | 78 | 1010.0 |
| 20260509032521 | 3 | 0 | 0.0 | 1.6 | 0.00 | 0.43 | 0.43 | 78 | 1010.0 |
| 20260509032022 | 3 | 0 | 0.0 | 1.6 | 0.00 | 0.43 | 0.43 | 80 | 1010.0 |
| 20260509031554 | 3 | 0 | 0.0 | 1.6 | 0.00 | 0.43 | 0.43 | 80 | 1010.1 |
| 20260509031023 | 3 | 0 | 0.0 | 0.0 | 0.00 | 0.43 | 0.43 | 80 | 1010.0 |
| 20260509030521 | 3 | 0 | 0.0 | 0.0 | 0.00 | 0.43 | 0.43 | 80 | 1009.9 |
| 20260509030057 | 4 | 0 | 0.0 | 0.0 | 0.00 | 0.43 | 0.43 | 79 | 1009.9 |
| 20260509025523 | 4 | 0 | 0.0 | 0.0 | 0.00 | 0.48 | 0.43 | 77 | 1010.0 |
| 20260509025020 | 4 | 0 | 0.0 | 0.0 | 0.00 | 0.48 | 0.43 | 77 | 1010.0 |
| 20260509024540 | 4 | 0 | 0.0 | 0.0 | 0.00 | 0.48 | 0.43 | 76 | 1010.1 |
| 20260509024020 | 4 | 0 | 0.0 | 0.0 | 0.00 | 0.48 | 0.43 | 76 | 1010.1 |
| 20260509023523 | 4 | 0 | 0.0 | 0.0 | 0.00 | 0.48 | 0.43 | 76 | 1010.1 |
| 20260509023041 | 4 | 0 | 0.0 | 0.0 | 0.00 | 0.48 | 0.43 | 75 | 1010.1 |
| 20260509022520 | 5 | 0 | 0.0 | 0.0 | 0.00 | 0.48 | 0.43 | 74 | 1010.1 |
| 20260509022021 | 5 | 0 | 0.0 | 0.0 | 0.00 | 0.48 | 0.43 | 74 | 1010.0 |
| 20260509021540 | 5 | 0 | 0.0 | 0.0 | 0.00 | 0.48 | 0.43 | 72 | 1010.1 |
| 20260509021019 | 5 | 0 | 0.0 | 0.0 | 0.00 | 0.48 | 0.43 | 71 | 1010.0 |
| 20260509020522 | 5 | 0 | 0.0 | 0.0 | 0.00 | 0.48 | 0.43 | 70 | 1010.0 |
| 20260509020041 | 5 | 0 | 0.0 | 0.0 | 0.00 | 0.48 | 0.43 | 70 | 1010.0 |
| 20260509015523 | 5 | 0 | 0.0 | 0.0 | 0.00 | 0.48 | 0.43 | 69 | 1010.0 |
| 20260509015024 | 5 | 0 | 0.0 | 0.0 | 0.00 | 0.48 | 0.43 | 68 | 1009.8 |
| 20260509014537 | 6 | 0 | 0.0 | 0.0 | 0.00 | 0.48 | 0.43 | 68 | 1009.8 |
| 20260509014022 | 6 | 0 | 0.0 | 0.0 | 0.00 | 0.48 | 0.43 | 67 | 1009.7 |
| 20260509013523 | 6 | 0 | 0.0 | 0.0 | 0.00 | 0.48 | 0.43 | 65 | 1009.7 |
| 20260509013040 | 6 | 0 | 0.0 | 0.0 | 0.00 | 0.48 | 0.43 | 61 | 1009.7 |
| 20260509012521 | 6 | 0 | 0.0 | 0.0 | 0.00 | 0.48 | 0.43 | 60 | 1009.7 |
| 20260509012024 | 6 | 0 | 0.0 | 0.0 | 0.00 | 0.48 | 0.43 | 56 | 1009.6 |
| 20260509011539 | 7 | 0 | 0.0 | 0.0 | 0.00 | 0.48 | 0.43 | 55 | 1009.5 |
| 20260509011022 | 7 | 0 | 0.0 | 0.0 | 0.00 | 0.48 | 0.43 | 60 | 1009.5 |
| 20260509010521 | 7 | 0 | 0.0 | 0.0 | 0.00 | 0.48 | 0.43 | 60 | 1009.6 |
| 20260509010037 | 7 | 0 | 0.0 | 0.0 | 0.00 | 0.48 | 0.43 | 60 | 1009.6 |
| 20260509005520 | 8 | 0 | 0.0 | 0.0 | 0.00 | 0.48 | 0.43 | 57 | 1009.5 |
| 20260509005019 | 8 | 0 | 0.0 | 0.0 | 0.00 | 0.48 | 0.43 | 55 | 1009.6 |
| 20260509004549 | 8 | 0 | 0.0 | 0.0 | 0.00 | 0.48 | 0.43 | 51 | 1009.5 |
| 20260509004025 | 9 | 0 | 0.0 | 0.0 | 0.00 | 0.48 | 0.43 | 53 | 1009.5 |
| 20260509003523 | 9 | 0 | 0.0 | 0.0 | 0.00 | 0.48 | 0.43 | 49 | 1009.4 |
| 20260509003051 | 10 | 0 | 0.0 | 0.0 | 0.00 | 0.48 | 0.43 | 51 | 1009.4 |
| 20260509002520 | 10 | 0 | 0.0 | 0.0 | 0.00 | 0.48 | 0.43 | 49 | 1009.3 |
| 20260509002020 | 10 | 0 | 0.0 | 0.0 | 0.00 | 0.48 | 0.43 | 47 | 1009.4 |
| 20260509001541 | 10 | 0 | 0.0 | 1.6 | 0.00 | 0.48 | 0.43 | 47 | 1009.3 |
| 20260509001020 | 11 | 0 | 0.0 | 1.6 | 0.00 | 0.48 | 0.43 | 45 | 1009.2 |
| 20260509000522 | 11 | 0 | 0.0 | 3.2 | 0.00 | 0.48 | 0.43 | 44 | 1009.1 |
| 20260509000038 | 11 | 0 | 0.0 | 4.8 | 0.00 | 0.48 | 0.43 | 42 | 1009.1 |
| 20260508235522 | 11 | 271 | 1.6 | 4.8 | 0.00 | 0.48 | 0.43 | 41 | 1009.1 |
| 20260508235022 | 11 | 271 | 1.6 | 4.8 | 0.00 | 0.48 | 0.43 | 39 | 1009.1 |
| 20260508234539 | 11 | 0 | 0.0 | 4.8 | 0.00 | 0.48 | 0.43 | 39 | 1009.2 |
| 20260508234022 | 11 | 277 | 0.0 | 4.8 | 0.00 | 0.48 | 0.43 | 38 | 1009.0 |
| 20260508233524 | 12 | 277 | 1.6 | 6.4 | 0.00 | 0.48 | 0.43 | 38 | 1009.1 |
| 20260508233044 | 12 | 278 | 1.6 | 6.4 | 0.00 | 0.48 | 0.43 | 37 | 1009.1 |
| 20260508232519 | 12 | 269 | 1.6 | 9.7 | 0.00 | 0.48 | 0.43 | 37 | 1009.2 |
| 20260508232020 | 12 | 215 | 1.6 | 9.7 | 0.00 | 0.48 | 0.43 | 38 | 1009.2 |
| 20260508231542 | 12 | 230 | 3.2 | 9.7 | 0.00 | 0.48 | 0.43 | 36 | 1009.2 |
| 20260508231021 | 12 | 216 | 4.8 | 9.7 | 0.00 | 0.48 | 0.43 | 37 | 1009.1 |
| 20260508230520 | 12 | 216 | 1.6 | 6.4 | 0.00 | 0.48 | 0.43 | 38 | 1009.1 |
| 20260508230042 | 12 | 216 | 3.2 | 8.0 | 0.00 | 0.48 | 0.43 | 37 | 1009.0 |
| 20260508225520 | 12 | 0 | 1.6 | 9.7 | 0.00 | 0.48 | 0.43 | 38 | 1009.0 |
| 20260508225021 | 12 | 213 | 3.2 | 12.9 | 0.00 | 0.48 | 0.43 | 36 | 1009.1 |
| 20260508224553 | 12 | 224 | 3.2 | 11.3 | 0.00 | 0.48 | 0.43 | 38 | 1009.1 |
| 20260508224023 | 12 | 196 | 4.8 | 11.3 | 0.00 | 0.48 | 0.43 | 36 | 1009.2 |
| 20260508223520 | 12 | 207 | 1.6 | 12.9 | 0.00 | 0.48 | 0.43 | 36 | 1009.1 |
| 20260508223047 | 12 | 235 | 4.8 | 12.9 | 0.00 | 0.48 | 0.43 | 38 | 1009.2 |
| 20260508222522 | 12 | 302 | 3.2 | 11.3 | 0.00 | 0.48 | 0.43 | 37 | 1009.1 |
| 20260508222021 | 12 | 284 | 3.2 | 12.9 | 0.00 | 0.48 | 0.43 | 37 | 1009.2 |
| 20260508221535 | 12 | 220 | 4.8 | 12.9 | 0.00 | 0.48 | 0.43 | 36 | 1009.1 |
| 20260508221023 | 13 | 213 | 3.2 | 12.9 | 0.00 | 0.48 | 0.43 | 37 | 1009.2 |
| 20260508220523 | 12 | 212 | 4.8 | 16.1 | 0.00 | 0.48 | 0.43 | 36 | 1009.2 |
| 20260508220047 | 12 | 0 | 4.8 | 16.1 | 0.00 | 0.48 | 0.43 | 38 | 1009.1 |
| 20260508215519 | 12 | 294 | 4.8 | 12.9 | 0.00 | 0.48 | 0.43 | 36 | 1009.1 |
| 20260508215019 | 12 | 292 | 4.8 | 12.9 | 0.00 | 0.48 | 0.43 | 38 | 1009.1 |
| 20260508214535 | 12 | 215 | 4.8 | 16.1 | 0.00 | 0.48 | 0.43 | 36 | 1009.2 |
| 20260508214020 | 12 | 265 | 8.0 | 16.1 | 0.00 | 0.48 | 0.43 | 36 | 1009.2 |
| 20260508213519 | 13 | 211 | 3.2 | 12.9 | 0.00 | 0.48 | 0.43 | 37 | 1009.2 |
| 20260508213041 | 12 | 235 | 3.2 | 16.1 | 0.00 | 0.48 | 0.43 | 35 | 1009.1 |
| 20260508212521 | 13 | 182 | 8.0 | 16.1 | 0.00 | 0.48 | 0.43 | 35 | 1009.2 |
| 20260508212023 | 13 | 182 | 4.8 | 16.1 | 0.00 | 0.48 | 0.43 | 38 | 1009.1 |
| 20260508211535 | 13 | 279 | 4.8 | 16.1 | 0.00 | 0.48 | 0.43 | 36 | 1009.0 |
| 20260508211021 | 13 | 305 | 4.8 | 14.5 | 0.00 | 0.48 | 0.43 | 37 | 1009.1 |
| 20260508210522 | 12 | 180 | 4.8 | 14.5 | 0.00 | 0.48 | 0.43 | 40 | 1009.1 |
| 20260508210045 | 12 | 219 | 8.0 | 19.3 | 0.00 | 0.48 | 0.43 | 35 | 1009.1 |
| 20260508205520 | 13 | 309 | 6.4 | 19.3 | 0.00 | 0.48 | 0.43 | 34 | 1009.1 |
| 20260508205020 | 13 | 208 | 6.4 | 16.1 | 0.00 | 0.48 | 0.43 | 36 | 1009.1 |
| 20260508204535 | 13 | 200 | 4.8 | 17.7 | 0.00 | 0.48 | 0.43 | 37 | 1009.1 |
| 20260508204019 | 13 | 192 | 6.4 | 17.7 | 0.00 | 0.48 | 0.43 | 38 | 1009.2 |
| 20260508203520 | 12 | 216 | 6.4 | 16.1 | 0.00 | 0.48 | 0.43 | 41 | 1009.1 |
| 20260508203042 | 12 | 182 | 6.4 | 14.5 | 0.00 | 0.48 | 0.43 | 38 | 1009.3 |
| 20260508202521 | 12 | 227 | 6.4 | 16.1 | 0.00 | 0.48 | 0.43 | 37 | 1009.5 |
| 20260508202027 | 12 | 252 | 6.4 | 16.1 | 0.00 | 0.48 | 0.43 | 41 | 1009.5 |
| 20260508201542 | 12 | 273 | 3.2 | 11.3 | 0.00 | 0.48 | 0.43 | 41 | 1009.6 |
| 20260508201027 | 13 | 298 | 3.2 | 12.9 | 0.00 | 0.48 | 0.43 | 44 | 1009.7 |
| 20260508200519 | 12 | 0 | 1.6 | 16.1 | 0.00 | 0.48 | 0.43 | 48 | 1009.7 |
| 20260508200042 | 12 | 305 | 8.0 | 16.1 | 0.00 | 0.48 | 0.43 | 43 | 1009.7 |
| 20260508195525 | 12 | 319 | 3.2 | 6.4 | 0.00 | 0.48 | 0.43 | 49 | 1009.7 |
| 20260508195022 | 12 | 55 | 1.6 | 11.3 | 0.00 | 0.48 | 0.43 | 44 | 1009.8 |
| 20260508194541 | 12 | 296 | 3.2 | 16.1 | 0.00 | 0.48 | 0.43 | 44 | 1009.9 |
| 20260508194023 | 12 | 302 | 6.4 | 16.1 | 0.00 | 0.48 | 0.43 | 48 | 1010.0 |
| 20260508193520 | 12 | 210 | 4.8 | 12.9 | 0.00 | 0.48 | 0.43 | 45 | 1010.1 |
| 20260508193037 | 12 | 217 | 6.4 | 12.9 | 0.00 | 0.48 | 0.43 | 45 | 1010.1 |
| 20260508192523 | 12 | 202 | 3.2 | 14.5 | 0.00 | 0.48 | 0.43 | 49 | 1010.2 |
| 20260508192020 | 12 | 244 | 6.4 | 14.5 | 0.00 | 0.48 | 0.43 | 50 | 1010.3 |
| 20260508191544 | 12 | 266 | 1.6 | 8.0 | 0.00 | 0.48 | 0.43 | 53 | 1010.3 |
| 20260508191020 | 12 | 47 | 0.0 | 11.3 | 0.00 | 0.48 | 0.43 | 49 | 1010.3 |
| 20260508190520 | 12 | 276 | 4.8 | 12.9 | 0.00 | 0.48 | 0.43 | 49 | 1010.4 |
| 20260508190037 | 11 | 300 | 3.2 | 16.1 | 0.00 | 0.48 | 0.43 | 52 | 1010.6 |
| 20260508185521 | 11 | 282 | 6.4 | 16.1 | 0.00 | 0.48 | 0.43 | 52 | 1010.6 |
| 20260508185019 | 11 | 190 | 3.2 | 6.4 | 0.00 | 0.48 | 0.43 | 53 | 1010.6 |
| 20260508184538 | 11 | 105 | 1.6 | 4.8 | 0.00 | 0.48 | 0.43 | 55 | 1010.6 |
| 20260508184019 | 10 | 63 | 1.6 | 4.8 | 0.00 | 0.48 | 0.43 | 52 | 1010.6 |
| 20260508183522 | 10 | 30 | 3.2 | 4.8 | 0.00 | 0.48 | 0.43 | 53 | 1010.6 |
| 20260508183045 | 10 | 189 | 0.0 | 8.0 | 0.00 | 0.48 | 0.43 | 55 | 1010.6 |
| 20260508182523 | 10 | 189 | 3.2 | 8.0 | 0.00 | 0.48 | 0.43 | 53 | 1010.6 |
| 20260508182023 | 10 | 189 | 3.2 | 9.7 | 0.00 | 0.48 | 0.43 | 52 | 1010.6 |
| 20260508181542 | 11 | 256 | 3.2 | 9.7 | 0.00 | 0.48 | 0.43 | 52 | 1010.6 |
| 20260508181021 | 11 | 234 | 1.6 | 11.3 | 0.00 | 0.48 | 0.43 | 51 | 1010.6 |
| 20260508180522 | 11 | 234 | 3.2 | 16.1 | 0.00 | 0.48 | 0.43 | 54 | 1010.7 |
| 20260508180039 | 11 | 242 | 6.4 | 17.7 | 0.00 | 0.48 | 0.43 | 52 | 1010.6 |
| 20260508175523 | 11 | 269 | 4.8 | 19.3 | 0.00 | 0.48 | 0.43 | 51 | 1010.7 |
| 20260508175022 | 11 | 241 | 8.0 | 19.3 | 0.00 | 0.48 | 0.43 | 49 | 1010.7 |
| 20260508174537 | 11 | 229 | 4.8 | 12.9 | 0.00 | 0.48 | 0.43 | 47 | 1010.9 |
| 20260508174023 | 11 | 186 | 6.4 | 16.1 | 0.00 | 0.48 | 0.43 | 47 | 1010.9 |
| 20260508173523 | 11 | 193 | 8.0 | 16.1 | 0.00 | 0.48 | 0.43 | 45 | 1010.9 |
| 20260508173036 | 11 | 165 | 3.2 | 14.5 | 0.00 | 0.48 | 0.43 | 51 | 1010.9 |
| 20260508172521 | 10 | 240 | 3.2 | 8.0 | 0.00 | 0.48 | 0.43 | 56 | 1011.0 |
| 20260508172022 | 10 | 187 | 3.2 | 6.4 | 0.00 | 0.48 | 0.43 | 55 | 1010.9 |
| 20260508171541 | 10 | 192 | 3.2 | 9.7 | 0.00 | 0.48 | 0.43 | 54 | 1011.0 |
| 20260508171021 | 10 | 188 | 1.6 | 19.3 | 0.00 | 0.48 | 0.43 | 52 | 1011.0 |
| 20260508170522 | 10 | 191 | 8.0 | 19.3 | 0.00 | 0.48 | 0.43 | 53 | 1011.1 |
| 20260508170039 | 10 | 209 | 6.4 | 14.5 | 0.00 | 0.48 | 0.43 | 56 | 1011.0 |
| 20260508165521 | 10 | 252 | 4.8 | 25.7 | 0.00 | 0.48 | 0.43 | 56 | 1011.1 |
| 20260508165025 | 10 | 236 | 8.0 | 25.7 | 0.00 | 0.48 | 0.43 | 58 | 1011.2 |
| 20260508164537 | 10 | 206 | 3.2 | 19.3 | 0.00 | 0.48 | 0.43 | 57 | 1011.2 |
| 20260508164022 | 10 | 206 | 8.0 | 19.3 | 0.00 | 0.48 | 0.43 | 57 | 1011.2 |
| 20260508163521 | 9 | 290 | 6.4 | 17.7 | 0.00 | 0.48 | 0.43 | 61 | 1011.4 |
| 20260508163038 | 10 | 319 | 3.2 | 14.5 | 0.00 | 0.48 | 0.43 | 62 | 1011.3 |
| 20260508162522 | 9 | 0 | 3.2 | 25.7 | 0.00 | 0.48 | 0.43 | 65 | 1011.4 |